Panama City Tyndall AFB, FL

7:18 AM CDT on September 26, 2017 (GMT -0500)
Tyndall Air Force Base

Weather History for KPAM - August, 2014

Change the Weather History Date:

Tuesday, August 12, 2014

  Actual Average Record
Temperature  
Mean Temperature 82 °F -  
Max Temperature 87 °F 87 °F 91 °F (1998)
Min Temperature 77 °F 73 °F 71 °F (2004)
Cooling Degree Days 17    
Growing Degree Days 32 (Base 50)    
Moisture  
Dew Point 76 °F    
Average Humidity 83    
Maximum Humidity 99    
Minimum Humidity 66    
Precipitation  
Precipitation 0.50 in - - ()
Sea Level Pressure  
Sea Level Pressure 29.95 in    
Wind  
Wind Speed 8 mph (WSW)    
Max Wind Speed 16 mph    
Max Gust Speed 24 mph    
Visibility 8 miles    
Events Rain , Thunderstorm    
Averages and records for this station are not official NWS values.
T = Trace of Precipitation, MM = Missing Value Source: NWS Daily Summary

Daily Weather History Graph

Daily Weather History Graph

Search for Another Location

Airport or City:

Trip Planner

Search our weather history database for the weather conditions in past years. The results will help you decide how hot, cold, wet, or windy it might be!

Date:

Astronomy

Aug. 12, 2014 Rise Set
Actual Time 6:07 AM CDT 7:26 PM CDT
Civil Twilight 5:42 AM CDT 7:51 PM CDT
Nautical Twilight 5:12 AM CDT 8:21 PM CDT
Astronomical Twilight 4:40 AM CDT 8:52 PM CDT
Moon 8:49 PM CDT (8/12) 8:11 AM CDT (8/12)
Length of Visible Light 14h 09m
Length of Day
13h 18m
Waning Gibbous, 94% of the Moon is Illuminated
Aug 12
Waning Gibbous
Aug 17
Last Quarter
Aug 25
New
Sep 2
First Quarter
Sep 8
Full

Hourly Weather History & Observations

Time (CDT) Temp. Heat Index Dew Point Humidity Pressure Visibility Wind Dir Wind Speed Gust Speed Precip Events Conditions
12:58 AM 84.2 °F 94.1 °F 77.2 °F 79% 29.97 in 10.0 mi West 10.4 mph - N/A   Partly Cloudy
1:16 AM 84.2 °F 94.1 °F 77.0 °F 79% 29.96 in 10.0 mi West 8.1 mph - N/A Thunderstorm Partly Cloudy
1:17 AM 84.2 °F 94.1 °F 77.0 °F 79% 29.96 in 10.0 mi West 9.2 mph - N/A Thunderstorm Thunderstorm
1:42 AM 84.2 °F 94.1 °F 77.0 °F 79% 29.95 in 10.0 mi WNW 12.7 mph - N/A Thunderstorm Scattered Clouds
1:58 AM 84.0 °F 94.8 °F 77.9 °F 82% 29.96 in 10.0 mi WNW 9.2 mph - N/A   Scattered Clouds
2:58 AM 83.7 °F 91.7 °F 75.6 °F 76% 29.95 in 10.0 mi WNW 10.4 mph - N/A   Clear
3:58 AM 80.4 °F 85.3 °F 73.9 °F 81% 29.94 in 10.0 mi NW 9.2 mph - N/A   Clear
4:58 AM 78.6 °F - 73.0 °F 83% 29.94 in 10.0 mi NNW 4.6 mph - N/A   Clear
5:58 AM 77.5 °F - 72.9 °F 85% 29.94 in 10.0 mi North 1.2 mph - N/A   Clear
6:58 AM 78.1 °F - 73.4 °F 85% 29.96 in 10.0 mi NNE 2.3 mph - N/A   Clear
7:58 AM 79.3 °F - 73.4 °F 82% 29.96 in 10.0 mi NE 3.5 mph - N/A   Clear
8:58 AM 80.8 °F 85.6 °F 73.2 °F 78% 29.98 in 10.0 mi Calm Calm - N/A   Clear
9:58 AM 82.0 °F 87.9 °F 73.9 °F 76% 29.98 in 10.0 mi SW 5.8 mph - N/A   Clear
10:37 AM 84.2 °F 90.9 °F 73.4 °F 70% 29.99 in 10.0 mi SSW 4.6 mph - N/A   Light Drizzle
10:57 AM 83.3 °F 90.2 °F 74.3 °F 74% 30.00 in 10.0 mi SW 4.6 mph - N/A   Mostly Cloudy
1:00 PM 87.8 °F 97.6 °F 75.2 °F 66% 29.97 in 10.0 mi WSW 6.9 mph - N/A   Mostly Cloudy
1:57 PM 87.3 °F 99.3 °F 77.2 °F 72% 29.97 in 10.0 mi SSW 10.4 mph - N/A   Mostly Cloudy
2:58 PM 86.0 °F 95.5 °F 75.7 °F 71% 29.95 in 10.0 mi WSW 11.5 mph - N/A   Mostly Cloudy
3:59 PM 86.7 °F 97.3 °F 76.3 °F 71% 29.94 in 10.0 mi SW 10.4 mph - N/A   Clear
4:58 PM 84.7 °F 94.8 °F 76.6 °F 77% 29.94 in 10.0 mi SW 11.5 mph - N/A   Clear
5:58 PM 85.1 °F 95.4 °F 76.6 °F 76% 29.93 in 10.0 mi SW 11.5 mph - N/A   Clear
6:58 PM 83.8 °F 93.2 °F 76.6 °F 79% 29.93 in 10.0 mi WSW 8.1 mph - N/A   Clear
7:32 PM 84.2 °F 94.1 °F 77.0 °F 79% 29.92 in 4.0 mi WSW 9.2 mph - N/A Rain Light Rain Showers
7:33 PM 84.2 °F 94.1 °F 77.0 °F 79% 29.92 in 3.0 mi WSW 8.1 mph - N/A Rain Light Rain Showers
7:36 PM 82.4 °F 90.9 °F 77.0 °F 84% 29.92 in 10.0 mi WSW 8.1 mph - N/A   Partly Cloudy
7:40 PM 82.4 °F 90.9 °F 77.0 °F 84% 29.92 in 4.0 mi West 8.1 mph - N/A Rain Rain
7:45 PM 82.4 °F 92.4 °F 78.8 °F 89% 29.92 in 3.0 mi SW 5.8 mph - N/A Rain Light Rain Showers
7:50 PM 82.4 °F 92.4 °F 78.8 °F 89% 29.92 in 8.0 mi SW 8.1 mph - N/A Rain Light Rain Showers
7:53 PM 82.4 °F 92.4 °F 78.8 °F 89% 29.92 in 10.0 mi SW 8.1 mph - N/A   Mostly Cloudy
7:58 PM 82.0 °F 90.8 °F 77.9 °F 87% 29.93 in 10.0 mi SW 9.2 mph - 0.02 in   Scattered Clouds
8:36 PM 82.4 °F 90.9 °F 77.0 °F 84% 29.93 in 2.0 mi SSW 5.8 mph - N/A Rain Light Rain Showers
8:45 PM 82.4 °F 90.9 °F 77.0 °F 84% 29.94 in 3.0 mi West 11.5 mph 24.2 mph N/A Rain Light Rain Showers
8:46 PM 82.4 °F 90.9 °F 77.0 °F 84% 29.94 in 4.0 mi WSW 9.2 mph 24.2 mph N/A Rain Light Rain Showers
8:58 PM 80.6 °F 87.5 °F 77.7 °F 91% 29.95 in 4.0 mi Variable 2.3 mph - 0.37 in Rain Light Rain Showers
9:05 PM 80.6 °F 88.1 °F 78.8 °F 94% 29.93 in 3.0 mi South 6.9 mph - N/A Rain Light Rain Showers
9:13 PM 80.6 °F 88.1 °F 78.8 °F 94% 29.94 in 10.0 mi WSW 8.1 mph - N/A   Mostly Cloudy
9:18 PM 80.6 °F 88.1 °F 78.8 °F 94% 29.94 in 10.0 mi WSW 8.1 mph - N/A Thunderstorm Mostly Cloudy
9:35 PM 82.4 °F 90.9 °F 77.0 °F 84% 29.94 in 10.0 mi SW 8.1 mph - N/A Thunderstorm Thunderstorm
9:58 PM 81.3 °F 89.0 °F 77.4 °F 88% 29.96 in 10.0 mi WSW 6.9 mph - 0.10 in Thunderstorm Scattered Clouds
10:36 PM 80.6 °F 86.2 °F 75.2 °F 84% 29.95 in 8.0 mi SW 16.1 mph - N/A Rain Light Rain
10:41 PM 78.8 °F - 73.4 °F 83% 29.95 in 8.0 mi SSW 12.7 mph - N/A Rain Light Rain
10:49 PM 77.0 °F - 73.4 °F 89% 29.95 in 8.0 mi South 8.1 mph - N/A Rain , Thunderstorm Light Thunderstorms and Rain
10:52 PM 77.0 °F - 73.4 °F 89% 29.95 in 9.0 mi South 10.4 mph - N/A Thunderstorm Thunderstorm
10:58 PM 77.4 °F - 74.1 °F 90% 29.96 in 10.0 mi SSE 9.2 mph - 0.01 in Thunderstorm Thunderstorm
11:09 PM 77.0 °F - 75.2 °F 94% 29.95 in 10.0 mi SE 5.8 mph - N/A   Partly Cloudy
11:58 PM 78.3 °F - 77.9 °F 99% 29.96 in 10.0 mi SW 4.6 mph - N/A   Partly Cloudy